Wind_Speed
18 18 17 16 16 15 15 14 14 14 15 16 17 17 16 16 17 18 17 16 17 18 17 16 16 16 15 14 13 12 11 12 11 11 9 10 10 10 10 9 8 8 8 9
19 18 16 16 16 17 16 15 15 15 17 19 18 18 17 17 17 16 16 17 17 16 16 16 16 16 14 13 13 13 12 12 12 10 10 10 9 9 9 9 9 8 8 9
19 17 18 18 18 17 16 16 16 17 18 20 21 20 17 17 17 16 16 17 17 18 17 16 16 15 13 12 12 13 11 11 11 10 9 9 9 8 8 8 8 8 8 9
19 19 19 19 19 18 18 16 17 18 19 20 21 21 18 18 17 16 16 15 16 17 17 16 16 15 13 12 12 11 10 10 10 10 9 8 8 7 6 7 8 8 9 9
19 19 20 19 18 18 16 16 18 19 19 20 20 21 18 17 16 16 15 14 15 16 15 15 14 13 13 13 12 11 9 10 10 10 9 8 8 7 6 7 8 9 9 9
18 19 20 18 17 16 16 16 17 18 19 19 19 20 18 16 15 16 14 13 14 14 13 13 13 12 13 13 12 11 9 9 9 9 9 8 8 8 7 7 7 8 7 8
18 20 19 18 17 16 17 18 19 19 18 18 17 18 17 14 15 15 14 13 13 13 12 13 13 12 13 13 12 11 9 9 8 9 9 8 8 8 7 7 7 8 7 8
19 19 19 18 18 17 17 18 18 19 19 18 17 18 16 13 13 14 14 13 13 13 13 12 12 12 11 11 10 9 9 10 9 9 9 8 8 7 7 7 7 8 8 8
19 18 18 18 17 17 17 18 18 18 17 17 17 17 15 14 13 14 14 14 14 14 13 12 12 12 11 10 9 9 9 9 9 9 8 8 8 7 7 7 7 7 7 7
20 19 19 18 17 17 19 17 17 18 18 18 17 16 14 13 13 14 14 13 13 13 13 13 13 12 11 9 9 9 8 8 8 8 8 7 8 8 8 8 8 8 7 7
22 21 19 18 18 17 18 19 18 19 20 20 19 16 15 15 15 15 14 13 14 14 13 13 12 11 10 8 7 8 8 8 8 7 7 8 8 8 7 8 9 8 8 8
23 23 22 21 20 19 19 19 19 19 19 20 20 18 15 15 15 15 15 14 14 14 13 12 12 11 10 9 8 8 9 8 8 7 7 8 8 8 8 8 8 8 8 9
24 25 24 24 23 21 21 21 21 21 20 20 20 18 17 17 16 16 16 15 14 14 14 14 12 11 10 9 9 9 10 9 9 9 8 8 8 8 9 9 9 9 9 9
26 26 25 24 23 23 23 22 23 23 23 21 20 20 19 18 17 17 17 16 16 15 14 15 13 12 12 10 9 9 10 10 10 10 10 10 9 10 10 10 10 10 10 11
29 28 26 25 24 25 24 24 24 24 24 23 22 21 19 19 18 16 16 15 15 15 14 14 13 13 11 11 11 11 11 11 11 11 11 11 11 11 11 11 11 12 12 12
29 28 27 26 26 26 26 26 25 25 23 23 23 22 21 20 18 17 16 16 16 15 14 14 14 13 12 12 13 13 12 12 12 12 12 13 13 12 12 12 12 13 13 13
27 27 27 28 28 28 28 26 26 24 24 24 23 21 21 20 20 19 18 17 15 14 14 15 15 15 13 13 13 13 13 12 12 13 13 14 13 13 13 14 14 14 14 14
26 26 27 27 27 28 27 26 25 25 23 22 22 22 22 21 20 20 18 17 16 16 16 15 15 15 14 14 14 14 14 13 13 13 13 13 13 14 14 14 14 14 14 14
27 27 26 26 26 26 24 23 23 24 24 22 23 24 23 22 21 20 19 19 18 17 17 16 16 16 15 15 15 15 15 15 14 14 14 14 15 15 15 15 15 15 15 15
26 26 25 24 24 24 23 23 24 23 23 23 23 23 23 22 22 21 20 19 19 18 18 18 17 18 17 16 16 16 15 15 15 15 16 16 16 16 16 16 16 16 16 16
25 24 25 24 24 24 22 22 23 24 23 23 23 23 23 23 22 23 22 22 20 18 18 18 18 18 18 18 17 17 17 16 16 16 17 17 17 17 18 17 17 17 17 17
23 24 23 24 24 24 22 22 22 23 22 21 22 22 22 22 21 22 22 22 21 20 19 19 19 19 19 18 18 18 18 18 18 17 17 17 17 17 17 17 18 18 18 18
22 23 23 23 23 22 22 22 23 23 23 22 21 21 22 22 22 22 22 22 22 22 21 20 20 20 19 19 19 19 19 19 19 19 18 18 18 18 18 19 19 18 19 19
21 21 22 23 23 22 22 22 23 23 22 22 22 21 21 21 22 23 22 22 22 23 22 22 22 21 21 20 19 20 20 20 20 20 20 20 20 20 21 21 20 20 20 21
21 21 22 22 21 21 21 21 22 22 22 22 22 22 22 22 22 22 22 23 23 23 24 24 23 23 22 22 21 21 21 21 21 21 21 21 21 21 21 20 21 21 22 22
20 20 22 22 21 21 19 20 21 21 21 21 21 21 21 21 20 21 22 22 22 23 23 23 23 23 23 22 22 22 22 22 22 21 21 21 21 21 21 21 21 22 22 22
Wind_Direction
231 234 236 238 237 239 243 247 248 253 260 266 270 274 276 278 282 285 289 295 297 294 296 296 292 291 292 295 297 297 299 292 288 293 299 299 297 287 283 277 278 274 262 256
233 236 237 236 237 241 242 246 248 251 255 262 268 271 274 277 281 284 288 290 294 293 293 293 292 289 288 286 287 291 291 289 291 294 297 299 298 289 283 278 278 272 262 260
235 234 235 237 236 238 242 246 250 252 256 261 268 270 270 275 277 277 284 288 291 293 297 292 292 290 284 283 283 289 286 288 292 294 300 298 301 292 280 276 277 271 267 265
232 232 233 236 237 239 242 246 252 256 259 261 268 270 269 272 276 276 282 291 297 298 297 296 291 287 281 280 282 282 284 288 289 290 296 299 302 290 278 279 279 274 269 265
232 233 233 234 237 241 248 253 255 259 261 264 267 269 269 270 274 278 284 292 298 297 295 295 291 283 277 279 280 278 281 281 286 288 288 289 292 288 281 283 282 282 276 268
236 237 234 235 237 241 245 250 253 256 258 261 264 266 267 265 270 281 286 290 293 293 292 289 288 282 276 274 274 276 275 280 281 282 281 281 283 281 280 282 287 286 278 274
236 234 233 234 236 238 240 245 249 251 254 260 266 265 269 269 276 279 281 283 290 292 291 286 287 286 278 270 272 273 273 280 284 277 275 274 275 275 278 281 287 286 278 277
234 230 231 233 237 239 240 246 248 254 259 262 264 264 268 271 274 279 280 284 287 291 286 286 289 285 276 276 275 271 276 279 275 271 269 272 268 272 273 277 282 281 279 276
234 229 229 232 236 239 243 245 250 258 262 264 264 266 266 268 270 276 277 281 287 288 283 287 290 284 282 276 274 272 275 270 265 267 270 270 267 266 269 274 282 288 287 274
232 231 228 231 236 241 241 244 249 254 258 261 264 264 264 264 268 273 274 278 287 290 289 288 288 279 276 275 267 269 271 265 266 262 265 266 260 255 261 270 279 281 281 276
232 231 228 231 233 238 237 242 248 254 257 262 264 265 268 266 273 275 273 276 284 288 291 291 286 279 272 263 263 267 270 272 268 270 270 266 262 253 260 271 275 278 279 283
232 233 233 234 237 238 238 241 246 252 257 261 264 264 266 265 274 278 278 278 281 286 287 287 279 276 273 274 272 272 271 272 266 268 273 272 266 260 264 272 276 281 284 286
234 234 235 236 237 237 237 241 246 252 256 259 261 264 264 262 264 270 276 276 275 282 287 280 272 271 275 278 272 272 269 265 262 264 268 272 273 273 274 276 274 279 282 284
235 237 237 240 241 241 242 244 247 249 253 257 260 261 261 260 263 270 274 271 274 279 286 280 271 269 271 272 267 264 266 266 265 267 270 270 271 274 275 279 277 277 281 283
234 237 238 241 243 242 243 245 247 250 254 257 258 258 258 258 261 266 271 273 273 275 276 277 277 273 269 265 265 263 265 266 266 269 271 270 270 271 273 278 279 278 280 281
237 237 237 238 241 244 245 247 249 250 253 255 255 254 255 254 259 263 268 271 274 271 270 272 274 272 267 262 260 262 263 265 267 269 270 268 266 266 271 274 277 278 280 279
238 240 240 241 244 247 247 247 249 248 249 250 251 254 256 257 259 259 264 269 267 267 269 271 271 268 267 257 257 263 264 267 264 266 266 269 265 265 269 272 276 277 278 277
237 240 241 243 245 249 248 247 247 249 252 252 251 252 256 260 257 259 261 265 266 265 265 270 272 269 268 263 262 262 264 267 269 269 266 269 269 267 271 272 274 274 276 276
240 243 244 245 246 246 246 246 246 250 255 254 253 255 259 260 261 261 263 265 265 266 265 267 270 271 268 267 266 267 268 270 270 269 266 269 272 274 278 274 273 272 275 276
241 242 244 243 245 247 247 246 249 251 253 254 254 254 257 256 257 259 262 263 262 261 261 262 266 269 269 267 267 267 265 267 267 265 265 269 273 274 276 275 275 273 274 277
239 243 245 246 246 248 249 249 250 253 255 256 257 257 257 256 255 255 259 261 262 261 260 261 265 267 266 265 266 267 269 270 271 270 269 272 275 276 274 275 276 274 276 278
239 242 245 247 248 247 247 249 250 253 253 255 258 258 257 254 255 256 258 261 261 260 261 263 266 266 264 263 266 267 267 269 270 272 273 275 274 273 274 273 275 275 275 277
241 241 245 247 249 250 251 253 253 253 254 255 257 256 255 255 256 257 259 260 258 258 260 262 264 262 262 264 266 267 268 268 269 271 272 275 275 274 271 271 274 276 275 275
242 243 244 246 247 250 253 254 253 254 255 257 258 257 255 255 257 258 258 259 259 260 260 261 261 261 263 265 266 269 270 270 269 271 273 275 272 270 270 271 274 277 278 277
244 243 244 247 249 252 255 254 252 253 256 258 258 256 256 258 258 257 259 259 259 260 261 261 262 262 263 265 267 269 271 272 272 272 273 273 273 273 273 274 276 278 279 278
246 247 246 245 247 252 254 252 253 254 254 255 256 255 256 258 260 259 259 258 258 260 261 262 263 264 265 265 267 269 271 270 271 272 272 272 273 272 273 275 277 279 279 277
Height
5845 5847 5849 5851 5852 5854 5854 5854 5855 5857 5857 5857 5857 5857 5856 5855 5855 5854 5853 5851 5849 5847 5846 5846 5845 5844 5843 5842 5841 5839 5838 5838 5838 5836 5835 5835 5834 5834 5833 5833 5833 5833 5833 5833
5840 5842 5845 5846 5847 5849 5849 5850 5851 5853 5853 5852 5852 5852 5852 5851 5851 5850 5849 5847 5846 5844 5843 5842 5841 5840 5839 5838 5838 5837 5836 5836 5835 5834 5834 5833 5832 5831 5830 5830 5830 5830 5830 5830
5836 5839 5840 5841 5843 5844 5845 5846 5847 5848 5849 5847 5847 5847 5847 5847 5846 5846 5845 5843 5842 5840 5839 5838 5837 5836 5835 5835 5835 5834 5833 5833 5832 5831 5831 5830 5829 5828 5828 5828 5828 5828 5827 5828
5831 5833 5835 5836 5838 5840 5841 5842 5843 5843 5843 5843 5843 5842 5843 5843 5842 5841 5840 5839 5837 5836 5834 5834 5833 5832 5832 5831 5831 5830 5830 5830 5829 5829 5828 5828 5827 5826 5826 5826 5826 5825 5825 5825
5826 5829 5830 5831 5834 5835 5836 5838 5838 5838 5838 5838 5838 5837 5838 5838 5837 5836 5836 5835 5833 5832 5831 5830 5829 5829 5828 5828 5827 5827 5826 5827 5826 5826 5826 5826 5825 5824 5824 5824 5823 5823 5822 5822
5822 5824 5825 5827 5829 5830 5831 5833 5833 5833 5833 5833 5833 5832 5832 5833 5833 5832 5832 5831 5830 5828 5827 5826 5826 5826 5825 5825 5824 5824 5823 5824 5823 5823 5823 5823 5823 5822 5822 5822 5821 5821 5820 5819
5816 5818 5820 5822 5823 5825 5826 5828 5828 5828 5827 5828 5828 5827 5827 5828 5828 5827 5827 5827 5826 5825 5823 5823 5823 5823 5822 5822 5821 5821 5821 5821 5821 5821 5821 5821 5820 5820 5820 5820 5819 5819 5818 5817
5811 5813 5815 5817 5819 5820 5822 5823 5824 5824 5823 5823 5823 5822 5823 5823 5824 5824 5823 5823 5822 5821 5820 5820 5820 5819 5818 5819 5819 5819 5818 5818 5819 5819 5818 5818 5818 5818 5818 5817 5817 5816 5815 5814
5806 5809 5811 5813 5815 5816 5817 5818 5820 5819 5819 5819 5818 5818 5819 5819 5819 5820 5820 5819 5818 5818 5817 5816 5816 5816 5815 5816 5816 5816 5816 5816 5816 5816 5816 5815 5816 5816 5816 5815 5815 5814 5813 5812
5801 5804 5807 5809 5810 5811 5813 5814 5815 5814 5814 5814 5815 5815 5815 5815 5816 5816 5816 5815 5815 5814 5814 5813 5813 5813 5813 5813 5813 5813 5813 5813 5813 5813 5813 5813 5813 5813 5813 5813 5812 5812 5811 5810
5797 5799 5802 5804 5805 5807 5808 5810 5810 5810 5810 5811 5811 5814 5813 5812 5812 5813 5812 5812 5812 5811 5811 5810 5809 5809 5810 5810 5811 5811 5810 5810 5810 5811 5811 5811 5810 5810 5810 5810 5809 5809 5808 5808
5791 5794 5796 5799 5801 5802 5804 5805 5806 5806 5806 5806 5807 5811 5808 5809 5809 5809 5808 5808 5808 5808 5807 5807 5806 5806 5806 5807 5808 5808 5808 5808 5808 5809 5809 5808 5808 5808 5808 5807 5807 5806 5806 5805
5786 5788 5791 5794 5798 5799 5799 5800 5800 5801 5802 5802 5802 5806 5804 5804 5804 5805 5805 5804 5804 5804 5804 5803 5803 5804 5804 5804 5805 5805 5805 5805 5806 5806 5805 5805 5805 5805 5804 5804 5804 5804 5803 5802
5780 5782 5785 5788 5790 5791 5793 5795 5795 5795 5796 5797 5798 5799 5799 5799 5800 5800 5800 5800 5800 5800 5800 5800 5800 5801 5801 5801 5801 5801 5802 5803 5803 5803 5802 5802 5802 5802 5801 5801 5801 5800 5800 5799
5773 5776 5779 5781 5783 5785 5787 5788 5789 5790 5791 5792 5793 5793 5794 5795 5796 5796 5796 5796 5796 5796 5796 5796 5796 5797 5797 5797 5797 5798 5799 5799 5799 5799 5799 5799 5799 5798 5798 5798 5797 5797 5796 5796
5767 5770 5772 5775 5777 5778 5780 5782 5784 5785 5786 5787 5787 5788 5789 5790 5791 5791 5791 5792 5792 5792 5791 5792 5793 5793 5793 5794 5794 5795 5795 5796 5796 5796 5795 5795 5795 5795 5795 5794 5794 5793 5793 5792
5760 5763 5766 5769 5771 5772 5774 5776 5777 5778 5779 5781 5782 5784 5784 5785 5785 5786 5786 5787 5788 5787 5787 5788 5788 5789 5789 5790 5790 5791 5791 5791 5791 5792 5792 5791 5791 5791 5790 5790 5789 5789 5788 5788
5755 5757 5759 5762 5764 5765 5769 5770 5771 5771 5772 5775 5777 5778 5778 5779 5780 5780 5781 5782 5783 5782 5783 5783 5784 5784 5785 5785 5786 5786 5786 5786 5787 5787 5787 5787 5787 5786 5786 5786 5785 5784 5784 5783
5749 5751 5753 5755 5757 5759 5762 5763 5764 5766 5767 5769 5771 5772 5772 5773 5774 5775 5776 5776 5777 5777 5778 5778 5779 5780 5780 5781 5781 5782 5782 5782 5782 5782 5783 5782 5782 5782 5782 5781 5781 5780 5779 5779
5742 5744 5747 5749 5751 5753 5756 5757 5758 5760 5761 5763 5763 5765 5766 5768 5769 5770 5770 5771 5772 5772 5772 5773 5774 5774 5775 5775 5776 5777 5777 5778 5777 5777 5778 5778 5778 5778 5777 5776 5776 5775 5774 5773
5736 5738 5740 5742 5744 5747 5750 5751 5753 5755 5757 5757 5757 5759 5760 5761 5763 5764 5764 5765 5765 5766 5767 5767 5769 5769 5770 5771 5771 5771 5772 5772 5772 5772 5773 5773 5772 5772 5772 5772 5771 5770 5769 5768
5730 5733 5735 5736 5739 5743 5743 5745 5747 5748 5749 5750 5751 5752 5753 5755 5756 5757 5758 5758 5759 5760 5761 5762 5763 5764 5765 5765 5766 5766 5767 5767 5767 5767 5767 5767 5767 5766 5766 5766 5765 5764 5764 5763
5724 5727 5729 5731 5735 5736 5737 5739 5740 5741 5742 5743 5745 5746 5747 5749 5750 5750 5751 5752 5753 5754 5755 5756 5757 5758 5759 5760 5760 5761 5761 5761 5761 5762 5762 5761 5761 5760 5760 5760 5759 5758 5757 5757
5719 5720 5722 5724 5726 5729 5731 5732 5733 5734 5736 5737 5738 5739 5740 5742 5743 5744 5745 5745 5746 5747 5748 5750 5751 5752 5753 5754 5754 5754 5754 5755 5755 5755 5755 5755 5753 5753 5753 5753 5753 5752 5751 5750
5713 5714 5716 5717 5720 5721 5724 5725 5726 5728 5729 5731 5732 5733 5734 5734 5735 5737 5738 5739 5739 5740 5741 5743 5744 5745 5746 5746 5747 5748 5748 5748 5748 5748 5748 5747 5746 5746 5746 5746 5746 5745 5744 5743
5707 5708 5710 5711 5713 5715 5717 5718 5720 5721 5722 5723 5725 5726 5727 5728 5729 5730 5731 5732 5733 5734 5734 5735 5736 5737 5738 5739 5740 5740 5741 5741 5741 5741 5741 5741 5740 5740 5739 5739 5739 5737 5737 5736